Location: Unspecified
(0.0000°N, 0.0000°E)
Time: 18:39:58
(UTC+00:00)

Tiangong - Visible Passes

Search period start: 17 July 2024 00:00
Search period end: 27 July 2024 00:00
Orbit: 374 x 377 km, 41.5° (Epoch: 17 July)

Date Brightness Start Highest point End Pass type
(mag) Time Alt. Az. Time Alt. Az. Time Alt. Az.
21 Jul -1.4 18:53:55 10° SSW 18:56:42 31° SE 18:58:16 19° E visible
22 Jul -0.2 19:27:03 10° WSW 19:29:46 29° NW 19:32:23 11° NNE visible
24 Jul 1.0 18:57:15 10° WNW 18:58:56 14° NW 19:00:39 10° N visible
25 Jul 1.0 04:48:55 10° N 04:50:34 14° NE 04:52:13 10° ENE visible
26 Jul -2.3 05:19:53 10° NW 05:22:58 83° SW 05:26:04 10° SE visible
